This demonstration page uses our WeatherBlox Daily Observations layout. Learn more.

Left ArrowRight Arrow

Hourly Observations for March 9, 2017

Temp ( °F °C ) Dew Point ( °F °C ) Humidity (%) Winds ( mph kmh ) Pressure ( in mb ) Visibility ( mi km ) Precip ( " mm )
12:15 am 00:15 Clear 55 13 25 -4 31 31 undefined N/A 30.09 1019 10 16 0.00 0.00
12:35 am 00:35 Clear 55 13 25 -4 31 31 undefined N/A 30.09 1019 10 16 0.00 0.00
12:55 am 00:55 Clear 55 13 25 -4 31 31 undefined N/A 30.09 1019 10 16 0.00 0.00
1:15 am 01:15 Clear 55 13 25 -4 31 31 undefined N/A 30.12 1020 10 16 0.00 0.00
1:35 am 01:35 Clear 55 13 25 -4 31 31 undefined N/A 30.09 1019 10 16 0.00 0.00
1:55 am 01:55 Clear 55 13 27 -3 33 33 undefined N/A 30.09 1019 10 16 0.00 0.00
2:15 am 02:15 Clear 55 13 27 -3 33 33 undefined N/A 30.09 1019 10 16 0.00 0.00
2:35 am 02:35 Clear 55 13 27 -3 33 33 undefined N/A 30.09 1019 10 16 0.00 0.00
2:55 am 02:55 Clear 55 13 27 -3 33 33 undefined N/A 30.09 1019 10 16 0.00 0.00
3:15 am 03:15 Clear 55 13 27 -3 33 33 undefined N/A 30.09 1019 10 16 0.00 0.00
3:35 am 03:35 Clear 55 13 27 -3 33 33 undefined N/A 30.09 1019 10 16 0.00 0.00
3:55 am 03:55 Clear 55 13 27 -3 33 33 undefined N/A 30.09 1019 10 16 0.00 0.00
4:15 am 04:15 Clear 55 13 27 -3 33 33 undefined N/A 30.09 1019 10 16 0.00 0.00
4:35 am 04:35 Clear 55 13 27 -3 33 33 undefined N/A 30.12 1020 10 16 0.00 0.00
4:55 am 04:55 Clear 54 12 27 -3 35 35 undefined N/A 30.12 1020 10 16 0.00 0.00
5:15 am 05:15 Clear 54 12 27 -3 35 35 undefined N/A 30.12 1020 10 16 0.00 0.00
5:35 am 05:35 Clear 54 12 27 -3 35 35 undefined N/A 30.12 1020 10 16 0.00 0.00
5:55 am 05:55 Clear 52 11 27 -3 38 38 undefined N/A 30.12 1020 10 16 0.00 0.00
6:15 am 06:15 Clear 52 11 27 -3 38 38 undefined N/A 30.12 1020 10 16 0.00 0.00
6:35 am 06:35 Sunny 54 12 27 -3 35 35 undefined N/A 30.12 1020 10 16 0.00 0.00
6:55 am 06:55 Sunny 50 10 27 -3 40 40 undefined N/A 30.15 1021 10 16 0.00 0.00
7:15 am 07:15 Sunny 50 10 28 -2 43 43 undefined N/A 30.18 1022 10 16 0.00 0.00
7:35 am 07:35 Sunny 54 12 28 -2 38 38 undefined N/A 30.15 1021 10 16 0.00 0.00
7:55 am 07:55 Sunny 55 13 30 -1 38 38 undefined N/A 30.15 1021 10 16 0.00 0.00
8:15 am 08:15 Sunny 59 15 28 -2 31 31 undefined N/A 30.15 1021 10 16 0.00 0.00
8:35 am 08:35 Sunny 61 16 28 -2 29 29 undefined N/A 30.15 1021 10 16 0.00 0.00
8:55 am 08:55 Sunny 61 16 28 -2 29 29 undefined N/A 30.15 1021 10 16 0.00 0.00
9:15 am 09:15 Sunny 61 16 28 -2 29 29 undefined N/A 30.12 1020 10 16 0.00 0.00
9:35 am 09:35 Sunny 63 17 28 -2 27 27 undefined N/A 30.12 1020 10 16 0.00 0.00
9:50 am 09:50 Sunny 63 17 28 -2 27 27 undefined N/A 30.12 1020 10 16 0.00 0.00
10:15 am 10:15 Sunny 63 17 28 -2 27 27 undefined N/A 30.12 1020 10 16 0.00 0.00
10:35 am 10:35 Sunny 64 18 30 -1 28 28 undefined N/A 30.09 1019 10 16 0.00 0.00
10:55 am 10:55 Sunny 66 19 30 -1 26 26 undefined N/A 30.09 1019 10 16 0.00 0.00
11:15 am 11:15 Sunny 66 19 30 -1 26 26 undefined N/A 30.09 1019 10 16 0.00 0.00
11:35 am 11:35 Sunny 68 20 32 0 26 26 undefined N/A 30.09 1019 10 16 0.00 0.00
11:55 am 11:55 Sunny 70 21 30 -1 23 23 undefined N/A 30.06 1018 10 16 0.00 0.00
12:15 pm 12:15 Sunny 70 21 30 -1 23 23 undefined N/A 30.06 1018 10 16 0.00 0.00
12:35 pm 12:35 Sunny 70 21 32 0 25 25 undefined N/A 30.06 1018 10 16 0.00 0.00
12:55 pm 12:55 Sunny 70 21 30 -1 23 23 undefined N/A 30.03 1017 10 16 0.00 0.00
1:15 pm 13:15 Sunny 70 21 30 -1 23 23 N 3 6 30.03 1017 10 16 0.00 0.00
1:35 pm 13:35 Sunny 72 22 32 0 23 23 WNW 21 33 30.00 1016 10 16 0.00 0.00
1:55 pm 13:55 Sunny 72 22 32 0 23 23 W 15 24 30.00 1016 10 16 0.00 0.00
2:15 pm 14:15 Sunny 72 22 32 0 23 23 WNW 24 39 30.00 1016 10 16 0.00 0.00
2:30 pm 14:30 Sunny 72 22 32 0 23 23 WNW 20 31 30.00 1016 10 16 0.00 0.00
2:55 pm 14:55 Sunny 72 22 30 -1 22 22 WNW 20 31 30.00 1016 10 16 0.00 0.00
3:15 pm 15:15 Sunny 72 22 32 0 23 23 W 18 30 30.00 1016 10 16 0.00 0.00
3:35 pm 15:35 Sunny 70 21 32 0 25 25 WNW 21 33 29.97 1015 10 16 0.00 0.00
3:55 pm 15:55 Sunny 70 21 30 -1 23 23 WNW 15 24 29.97 1015 10 16 0.00 0.00
4:15 pm 16:15 Sunny 72 22 32 0 23 23 W 14 22 29.97 1015 10 16 0.00 0.00
4:35 pm 16:35 Sunny 70 21 30 -1 23 23 WNW 10 17 29.97 1015 10 16 0.00 0.00
4:55 pm 16:55 Sunny 70 21 30 -1 23 23 WNW 16 26 29.97 1015 10 16 0.00 0.00
5:15 pm 17:15 Sunny 68 20 30 -1 24 24 WNW 12 19 29.97 1015 10 16 0.00 0.00
5:35 pm 17:35 Sunny 68 20 30 -1 24 24 WNW 8 13 29.97 1015 10 16 0.00 0.00
5:55 pm 17:55 Sunny 64 18 32 0 30 30 WNW 5 7 29.97 1015 10 16 0.00 0.00
6:15 pm 18:15 Clear 63 17 30 -1 30 30 W 3 6 29.97 1015 10 16 0.00 0.00
6:35 pm 18:35 Clear 63 17 30 -1 30 30 W 3 6 29.97 1015 10 16 0.00 0.00
6:55 pm 18:55 Clear 63 17 30 -1 30 30 W 3 6 29.97 1015 10 16 0.00 0.00
7:15 pm 19:15 Clear 61 16 30 -1 31 31 W 5 7 29.97 1015 10 16 0.00 0.00
7:35 pm 19:35 Partly Cloudy 57 14 30 -1 36 36 WSW 5 7 29.97 1015 10 16 0.00 0.00
7:55 pm 19:55 Mostly Cloudy 55 13 32 0 41 41 WSW 6 9 29.97 1015 10 16 0.00 0.00
8:15 pm 20:15 Partly Cloudy 54 12 32 0 44 44 SW 6 9 29.94 1014 10 16 0.00 0.00
8:35 pm 20:35 Partly Cloudy 54 12 32 0 44 44 SW 5 7 29.94 1014 10 16 0.00 0.00
8:55 pm 20:55 Partly Cloudy 54 12 32 0 44 44 W 5 7 29.94 1014 10 16 0.00 0.00
9:15 pm 21:15 Partly Cloudy 55 13 32 0 41 41 SSW 6 9 29.94 1014 10 16 0.00 0.00
9:35 pm 21:35 Mostly Cloudy 52 11 34 1 50 50 SSW 3 6 29.94 1014 10 16 0.00 0.00
9:55 pm 21:55 Cloudy 54 12 32 0 44 44 Calm 29.94 1014 10 16 0.00 0.00
10:15 pm 22:15 Cloudy 55 13 32 0 41 41 SSW 3 6 29.94 1014 10 16 0.00 0.00
10:35 pm 22:35 Cloudy 54 12 32 0 44 44 Calm 29.91 1013 10 16 0.00 0.00
10:55 pm 22:55 Mostly Cloudy 55 13 32 0 41 41 NNE 5 7 29.91 1013 10 16 0.00 0.00
11:15 pm 23:15 Partly Cloudy 55 13 32 0 41 41 NNE 10 17 29.91 1013 10 16 0.00 0.00
11:35 pm 23:35 Clear 55 13 32 0 41 41 NNE 8 13 29.91 1013 10 16 0.00 0.00
11:55 pm 23:55 Clear 54 12 32 0 44 44 NNE 12 19 29.91 1013 10 16 0.00 0.00

Powered by AerisWeather